DELTA 4 R/B, 47238

Orbit data source: Space-Track

DELTA 4 R/B, 47238 is space debris in GEO originally from a launch on Fri, 11 Dec 2020 UTC launched from the Air Force Eastern Test Range (AFETR). Debris objects in space refer to the collection of defunct objects orbiting the Earth. Examples of debris include non-operational satellites, rocket bodies, and fragments generated from explosions, collisions, or faulty payload assembly.

Not visible in the next 10 days
Identifier
47238, 2020-095B
Orbit
GEO
Country
Flag of USUS
Related business
Flag of USUnited Launch Alliance/Lockheed Martin (US)
Manufacturer
ULA Decatur
Mission
Spacecraft
Bus & Motor
DCSS-5, RL10B-2
Mass
3,450 kg wet, 3,450 kg dry
Launch date (UTC)
2020-12-11 (6 years ago)
Launch vehicle
Unknown
Launch site
Air Force Eastern Test Range (AFETR)
Object type
Payload
Rocket body
Debris
Shape & HBR
Cyl + 1 Nozzle, 6.8 m
Radar Cross Section
64.942 m²

Expand to show TLE details & history
Last TLE update: 3 days ago

TLE from 3 days ago
0 DELTA 4 R/B
1 47238U 20095B   26170.60509304 -.00000205  00000-0  00000-0 0  9991
2 47238   3.0739 300.9757 0257437   8.0453 352.6326  0.95076450 11226
Epoch: 2026-06-19T14:31Z
TLE epoch observation values (Epoch: 2026-06-19T14:31:20.038Z)
Latitude
-0.00001°
Longitude
175.61772°
Altitude
36,191.864 km
Speed
3.099 km/s
True Right ascension
20h 05m 07s
True Declination
0° 00' 00"
Sunlit
Object was in daylight at epoch
Visualization orbit readout
Latitude
Unknown
Longitude
Unknown
Altitude
Unknown
Speed
Unknown
Apparent Right ascension
Unknown
Apparent Declination
Unknown
Sunlit
N/A
Visualization observer readout
Local Sidereal Time
21:30:11
Azimuth
Unknown
Elevation
Unknown
Doppler factor
Unknown
Orbital elements
Apogee altitude
38,434.687 km
Perigee altitude
36,185.299 km
Semi-major axis
43,688.13 km
Eccentricity
0.02574
Inclination
3.0739°
RAAN
300.9757°
Arg. of periapsis
8.0453°
True anomaly
352.24187°
Mean anomaly
352.6326°
Eccentric anomaly
352.4385°
Mean motion
0.23768 °/min
Orbital period
1,514.62 mins
BSTAR
0
Loading maneuver chart data...
Computing Atmospheric mass density...
Loading historical data...
Loading historical data...
Loading historical data...
Loading historical data...
Loading historical data...
Loading historical data...
Loading historical data...
Other satellites on launch #95 in the year 2020 (2020-12-11 UTC)

Documentation

Showing up to 5 results
|